Location: Detroit
(42.3310°N, 83.0460°W)
Time: 19:43:13
(UTC-05:00)

BlueWalker 3 - Visible Passes

Search period start: 30 November 2022 00:00
Search period end: 10 December 2022 00:00
Orbit: 500 x 519 km, 53.2° (Epoch: 30 November)

Date Brightness Start Highest point End Pass type
(mag) Time Alt. Az. Time Alt. Az. Time Alt. Az.
30 Nov 3.8 17:55:57 10° WNW 17:58:56 20° NNW 18:01:46 11° NNE visible
30 Nov 4.7 19:36:05 10° NW 19:36:35 12° NNW 19:36:35 12° NNW visible
01 Dec 3.8 17:37:39 10° WNW 17:40:36 20° NNW 17:43:32 10° NE visible
01 Dec 4.4 19:17:43 10° NW 19:18:55 15° NNW 19:18:55 15° NNW visible
02 Dec 4.1 18:59:21 10° NW 19:01:16 17° N 19:01:16 17° N visible
03 Dec 3.8 18:40:59 10° NW 18:43:38 18° N 18:43:38 18° N visible
04 Dec 3.7 18:22:36 10° NW 18:25:22 18° N 18:26:02 17° NNE visible
05 Dec 3.7 18:04:12 10° NW 18:07:00 18° N 18:08:29 15° NE visible
05 Dec 4.6 19:42:37 10° NW 19:43:20 15° NW 19:43:20 15° NW visible
06 Dec 3.7 17:45:48 10° NW 17:48:38 19° N 17:51:01 12° NE visible
06 Dec 3.9 19:24:12 10° NW 19:25:51 23° NW 19:25:51 23° NW visible
07 Dec 3.6 17:27:23 10° NW 17:30:16 19° NNE 17:33:08 10° ENE visible
07 Dec 2.9 19:05:47 10° NW 19:08:29 38° NNW 19:08:29 38° NNW visible
08 Dec 2.0 18:47:21 10° NW 18:51:13 56° NNE 18:51:15 56° NE visible
09 Dec 2.0 18:28:55 10° NW 18:32:48 60° NNE 18:34:12 35° E visible
09 Dec 5.1 20:08:15 10° W 20:09:04 14° W 20:09:04 14° W visible
